| time (UTC) | temp F | wind direction | speed MPH | gust MPH | rain 1hr in | rain 24hr in | rain mn in | humidity % | barometer mb |
| 20260502221738 | 55 | 145 | 1.0 | 1.0 | 0.00 | 0.00 | 0.00 | 47 | 1011.6 |
| 20260502221235 | 55 | 137 | 1.0 | 2.0 | 0.00 | 0.00 | 0.00 | 47 | 1011.7 |
| 20260502220731 | 54 | 113 | 3.0 | 5.0 | 0.00 | 0.00 | 0.00 | 46 | 1011.6 |
| 20260502220227 | 54 | 133 | 2.0 | 2.0 | 0.00 | 0.00 | 0.00 | 47 | 1011.6 |
| 20260502215724 | 55 | 176 | 1.0 | 2.0 | 0.00 | 0.00 | 0.00 | 45 | 1011.6 |
| 20260502215221 | 55 | 97 | 2.0 | 3.0 | 0.00 | 0.00 | 0.00 | 44 | 1011.5 |
| 20260502214719 | 54 | 134 | 3.0 | 5.0 | 0.00 | 0.00 | 0.00 | 46 | 1011.4 |
| 20260502214215 | 55 | 6 | 4.0 | 5.0 | 0.00 | 0.00 | 0.00 | 45 | 1011.4 |
| 20260502213713 | 55 | 121 | 1.0 | 2.0 | 0.00 | 0.00 | 0.00 | 46 | 1011.4 |
| 20260502213210 | 55 | 15 | 2.0 | 3.0 | 0.00 | 0.00 | 0.00 | 46 | 1011.4 |
| 20260502212708 | 54 | 341 | 3.0 | 5.0 | 0.00 | 0.00 | 0.00 | 46 | 1011.7 |
| 20260502212206 | 54 | 113 | 2.0 | 3.0 | 0.00 | 0.00 | 0.00 | 48 | 1011.3 |
| 20260502211702 | 55 | 336 | 6.0 | 10.0 | 0.00 | 0.00 | 0.00 | 46 | 1011.3 |
| 20260502211159 | 57 | 119 | 1.0 | 2.0 | 0.00 | 0.00 | 0.00 | 44 | 1011.2 |
| 20260502210656 | 57 | 137 | 1.0 | 2.0 | 0.00 | 0.00 | 0.00 | 42 | 1011.4 |
| 20260502210153 | 55 | 75 | 5.0 | 6.0 | 0.00 | 0.00 | 0.00 | 45 | 1011.4 |
| 20260502205650 | 55 | 100 | 2.0 | 2.0 | 0.00 | 0.00 | 0.00 | 46 | 1011.4 |
| 20260502205147 | 55 | 114 | 1.0 | 2.0 | 0.00 | 0.00 | 0.00 | 47 | 1011.4 |
| 20260502204644 | 55 | 133 | 0.0 | 0.0 | 0.00 | 0.00 | 0.00 | 45 | 1011.5 |
| 20260502204142 | 55 | 354 | 2.0 | 3.0 | 0.00 | 0.00 | 0.00 | 46 | 1011.4 |
| 20260502203638 | 55 | 123 | 0.0 | 1.0 | 0.00 | 0.00 | 0.00 | 44 | 1011.3 |
| 20260502203137 | 57 | 103 | 3.0 | 3.0 | 0.00 | 0.00 | 0.00 | 41 | 1011.5 |
| 20260502202631 | 57 | 107 | 0.0 | 0.0 | 0.00 | 0.00 | 0.00 | 45 | 1011.6 |
| 20260502202130 | 55 | 250 | 3.0 | 3.0 | 0.00 | 0.00 | 0.00 | 44 | 1011.6 |
| 20260502201626 | 55 | 337 | 5.0 | 7.0 | 0.00 | 0.00 | 0.00 | 45 | 1011.6 |
| 20260502201122 | 54 | 54 | 4.0 | 6.0 | 0.00 | 0.00 | 0.00 | 45 | 1011.6 |
| 20260502200618 | 55 | 136 | 1.0 | 1.0 | 0.00 | 0.00 | 0.00 | 45 | 1011.8 |
| 20260502200116 | 55 | 110 | 3.0 | 5.0 | 0.00 | 0.00 | 0.00 | 47 | 1011.7 |
| 20260502195614 | 55 | 172 | 1.0 | 2.0 | 0.00 | 0.00 | 0.00 | 47 | 1011.6 |
| 20260502195109 | 54 | 133 | 0.0 | 0.0 | 0.00 | 0.00 | 0.00 | 47 | 1011.9 |
| 20260502194606 | 54 | 96 | 1.0 | 2.0 | 0.00 | 0.00 | 0.00 | 47 | 1011.8 |
| 20260502194102 | 54 | 232 | 3.0 | 6.0 | 0.00 | 0.00 | 0.00 | 47 | 1011.6 |
| 20260502193600 | 55 | 150 | 3.0 | 5.0 | 0.00 | 0.00 | 0.00 | 45 | 1012.0 |
| 20260502193056 | 55 | 342 | 4.0 | 6.0 | 0.00 | 0.00 | 0.00 | 46 | 1011.9 |
| 20260502192552 | 56 | 148 | 1.0 | 1.0 | 0.00 | 0.00 | 0.00 | 46 | 1011.6 |
| 20260502192050 | 54 | 99 | 1.0 | 2.0 | 0.00 | 0.00 | 0.00 | 50 | 1011.9 |
| 20260502191546 | 53 | 337 | 5.0 | 6.0 | 0.00 | 0.00 | 0.00 | 48 | 1012.0 |
| 20260502191044 | 53 | 55 | 3.0 | 3.0 | 0.00 | 0.00 | 0.00 | 47 | 1011.9 |
| 20260502190541 | 53 | 342 | 6.0 | 8.0 | 0.00 | 0.00 | 0.00 | 46 | 1012.1 |
| 20260502190038 | 54 | 190 | 3.0 | 3.0 | 0.00 | 0.00 | 0.00 | 47 | 1012.2 |
| 20260502185533 | 56 | 301 | 6.0 | 7.0 | 0.00 | 0.00 | 0.00 | 45 | 1012.1 |
| 20260502185030 | 57 | 275 | 6.0 | 7.0 | 0.00 | 0.00 | 0.00 | 43 | 1012.1 |
| 20260502184526 | 55 | 89 | 3.0 | 5.0 | 0.00 | 0.00 | 0.00 | 47 | 1012.0 |
| 20260502184022 | 55 | 148 | 3.0 | 3.0 | 0.00 | 0.00 | 0.00 | 45 | 1012.2 |
| 20260502183518 | 55 | 34 | 3.0 | 5.0 | 0.00 | 0.00 | 0.00 | 46 | 1012.2 |
| 20260502183015 | 55 | 358 | 4.0 | 6.0 | 0.00 | 0.00 | 0.00 | 47 | 1012.3 |
| 20260502182509 | 54 | 131 | 0.0 | 1.0 | 0.00 | 0.00 | 0.00 | 47 | 1012.5 |
| 20260502182006 | 54 | 239 | 4.0 | 6.0 | 0.00 | 0.00 | 0.00 | 46 | 1012.1 |
| 20260502181504 | 54 | 48 | 3.0 | 5.0 | 0.00 | 0.00 | 0.00 | 48 | 1012.3 |
| 20260502181002 | 53 | 18 | 4.0 | 6.0 | 0.00 | 0.00 | 0.00 | 48 | 1012.3 |
| 20260502180458 | 54 | 273 | 4.0 | 5.0 | 0.00 | 0.00 | 0.00 | 47 | 1012.2 |
| 20260502170413 | 55 | 117 | 5.0 | 6.0 | 0.00 | 0.00 | 0.00 | 47 | 1012.6 |
| 20260502163855 | 54 | 192 | 4.0 | 6.0 | 0.00 | 0.00 | 0.00 | 47 | 1013.0 |
| 20260502163352 | 55 | 121 | 3.0 | 3.0 | 0.00 | 0.00 | 0.00 | 50 | 1012.9 |
| 20260502162849 | 55 | 114 | 2.0 | 2.0 | 0.00 | 0.00 | 0.00 | 48 | 1013.0 |
| 20260502162346 | 56 | 273 | 6.0 | 9.0 | 0.00 | 0.00 | 0.00 | 47 | 1012.8 |
| 20260502161843 | 55 | 2 | 1.0 | 5.0 | 0.00 | 0.00 | 0.00 | 51 | 1013.0 |
| 20260502161339 | 55 | 183 | 3.0 | 3.0 | 0.00 | 0.00 | 0.00 | 49 | 1012.9 |
| 20260502160837 | 56 | 108 | 2.0 | 2.0 | 0.00 | 0.00 | 0.00 | 47 | 1013.3 |
| 20260502160336 | 56 | 325 | 4.0 | 5.0 | 0.00 | 0.00 | 0.00 | 49 | 1013.1 |
| 20260502152311 | 54 | 104 | 1.0 | 3.0 | 0.00 | 0.00 | 0.00 | 51 | 1013.3 |
| 20260502151808 | 54 | 24 | 2.0 | 3.0 | 0.00 | 0.00 | 0.00 | 51 | 1013.4 |
| 20260502151305 | 54 | 32 | 5.0 | 7.0 | 0.00 | 0.00 | 0.00 | 54 | 1013.3 |
| 20260502150803 | 55 | 119 | 1.0 | 1.0 | 0.00 | 0.00 | 0.00 | 53 | 1013.4 |
| 20260502150259 | 54 | 130 | 0.0 | 0.0 | 0.00 | 0.00 | 0.00 | 54 | 1013.4 |
| 20260502130647 | 44 | 121 | 0.0 | 0.0 | 0.00 | 0.00 | 0.00 | 97 | 1013.5 |
| 20260502130145 | 44 | 124 | 0.0 | 0.0 | 0.00 | 0.00 | 0.00 | 99 | 1013.5 |
| 20260502123631 | 39 | 121 | 0.0 | 0.0 | 0.00 | 0.00 | 0.00 | 99 | 1013.3 |
| 20260502123127 | 39 | 119 | 0.0 | 0.0 | 0.00 | 0.00 | 0.00 | 99 | 1013.3 |
| 20260502122624 | 39 | 122 | 0.0 | 0.0 | 0.00 | 0.00 | 0.00 | 99 | 1013.0 |
| 20260502122121 | 39 | 118 | 0.0 | 0.0 | 0.00 | 0.00 | 0.00 | 99 | 1013.4 |
| 20260502121619 | 38 | 127 | 0.0 | 0.0 | 0.00 | 0.00 | 0.00 | 99 | 1013.3 |
| 20260502121116 | 38 | 124 | 0.0 | 0.0 | 0.00 | 0.00 | 0.00 | 99 | 1013.4 |
| 20260502120612 | 37 | 114 | 0.0 | 0.0 | 0.00 | 0.00 | 0.00 | 99 | 1013.5 |
| 20260502120109 | 37 | 122 | 1.0 | 1.0 | 0.00 | 0.00 | 0.00 | 99 | 1013.4 |
| 20260502115607 | 37 | 120 | 0.0 | 0.0 | 0.00 | 0.00 | 0.00 | 99 | 1013.1 |
| 20260502115102 | 36 | 126 | 0.0 | 0.0 | 0.00 | 0.00 | 0.00 | 99 | 1013.1 |
| 20260502114559 | 35 | 127 | 0.0 | 0.0 | 0.00 | 0.00 | 0.00 | 99 | 1013.3 |
| 20260502114056 | 35 | 126 | 0.0 | 0.0 | 0.00 | 0.00 | 0.00 | 99 | 1013.3 |
| 20260502113554 | 34 | 133 | 0.0 | 0.0 | 0.00 | 0.00 | 0.00 | 99 | 1013.1 |
| 20260502113052 | 34 | 133 | 0.0 | 0.0 | 0.00 | 0.00 | 0.00 | 99 | 1013.1 |
| 20260502112549 | 34 | 133 | 0.0 | 0.0 | 0.00 | 0.00 | 0.00 | 99 | 1013.3 |
| 20260502112047 | 34 | 133 | 0.0 | 0.0 | 0.00 | 0.00 | 0.00 | 99 | 1013.1 |
| 20260502111544 | 34 | 134 | 0.0 | 0.0 | 0.00 | 0.00 | 0.00 | 99 | 1013.0 |
| 20260502111041 | 34 | 132 | 0.0 | 0.0 | 0.00 | 0.00 | 0.00 | 99 | 1013.1 |
| 20260502110539 | 34 | 132 | 0.0 | 0.0 | 0.00 | 0.00 | 0.00 | 99 | 1012.9 |
| 20260502110036 | 33 | 132 | 0.0 | 0.0 | 0.00 | 0.00 | 0.00 | 99 | 1012.9 |
| 20260502105533 | 33 | 132 | 0.0 | 0.0 | 0.00 | 0.00 | 0.00 | 99 | 1012.9 |
| 20260502105031 | 33 | 132 | 0.0 | 0.0 | 0.00 | 0.00 | 0.00 | 99 | 1012.8 |
| 20260502104528 | 33 | 132 | 0.0 | 0.0 | 0.00 | 0.00 | 0.00 | 99 | 1012.9 |
| 20260502104025 | 33 | 132 | 0.0 | 0.0 | 0.00 | 0.00 | 0.00 | 99 | 1013.0 |
| 20260502103523 | 33 | 132 | 0.0 | 0.0 | 0.00 | 0.00 | 0.00 | 99 | 1012.7 |
| 20260502103021 | 33 | 132 | 0.0 | 0.0 | 0.00 | 0.00 | 0.00 | 99 | 1012.7 |
| 20260502102517 | 33 | 132 | 0.0 | 0.0 | 0.00 | 0.00 | 0.00 | 99 | 1012.6 |
| 20260502102014 | 33 | 132 | 0.0 | 0.0 | 0.00 | 0.00 | 0.00 | 99 | 1013.0 |
| 20260502101512 | 33 | 132 | 0.0 | 0.0 | 0.00 | 0.00 | 0.00 | 99 | 1013.2 |
| 20260502101010 | 33 | 132 | 0.0 | 0.0 | 0.00 | 0.00 | 0.00 | 99 | 1012.9 |
| 20260502100508 | 32 | 132 | 0.0 | 0.0 | 0.00 | 0.00 | 0.00 | 99 | 1013.2 |
| 20260502091443 | 34 | 132 | 0.0 | 0.0 | 0.00 | 0.00 | 0.00 | 99 | 1012.9 |
| 20260502090940 | 34 | 131 | 0.0 | 0.0 | 0.00 | 0.00 | 0.00 | 99 | 1012.9 |
| 20260502090437 | 34 | 135 | 0.0 | 0.0 | 0.00 | 0.00 | 0.00 | 99 | 1013.2 |
| 20260502071331 | 35 | 131 | 0.0 | 0.0 | 0.00 | 0.00 | 0.00 | 98 | 1012.8 |
| 20260502070830 | 35 | 132 | 0.0 | 0.0 | 0.00 | 0.00 | 0.00 | 97 | 1012.8 |
| 20260502070327 | 35 | 132 | 0.0 | 0.0 | 0.00 | 0.00 | 0.00 | 97 | 1012.9 |
| 20260502065826 | 35 | 132 | 0.0 | 0.0 | 0.00 | 0.00 | 0.00 | 98 | 1012.8 |
| 20260502065323 | 35 | 132 | 0.0 | 0.0 | 0.00 | 0.00 | 0.00 | 97 | 1013.0 |
| 20260502064821 | 35 | 132 | 0.0 | 0.0 | 0.00 | 0.00 | 0.00 | 97 | 1013.0 |
| 20260502064319 | 35 | 132 | 0.0 | 0.0 | 0.00 | 0.00 | 0.00 | 97 | 1013.0 |
| 20260502063816 | 35 | 132 | 0.0 | 0.0 | 0.00 | 0.00 | 0.00 | 97 | 1012.9 |
| 20260502063314 | 35 | 132 | 0.0 | 0.0 | 0.00 | 0.00 | 0.00 | 97 | 1012.9 |
| 20260502062811 | 35 | 132 | 0.0 | 0.0 | 0.00 | 0.00 | 0.00 | 97 | 1012.8 |
| 20260502062308 | 36 | 132 | 0.0 | 0.0 | 0.00 | 0.00 | 0.00 | 98 | 1013.0 |
| 20260502061807 | 36 | 133 | 0.0 | 0.0 | 0.00 | 0.00 | 0.00 | 98 | 1013.0 |
| 20260502061304 | 36 | 130 | 0.0 | 0.0 | 0.00 | 0.00 | 0.00 | 98 | 1013.1 |
| 20260502060759 | 36 | 128 | 0.0 | 0.0 | 0.00 | 0.00 | 0.00 | 98 | 1013.3 |
| 20260502060255 | 36 | 128 | 0.0 | 0.0 | 0.00 | 0.00 | 0.00 | 98 | 1013.3 |
| 20260502055753 | 36 | 133 | 0.0 | 0.0 | 0.00 | 0.00 | 0.00 | 98 | 1013.4 |
| 20260502055250 | 36 | 132 | 0.0 | 0.0 | 0.00 | 0.00 | 0.00 | 97 | 1013.1 |
| 20260502054750 | 36 | 133 | 0.0 | 0.0 | 0.00 | 0.00 | 0.00 | 97 | 1013.3 |
| 20260502054247 | 36 | 133 | 0.0 | 0.0 | 0.00 | 0.00 | 0.00 | 97 | 1013.1 |
| 20260502053744 | 37 | 133 | 0.0 | 0.0 | 0.00 | 0.00 | 0.00 | 98 | 1013.2 |
| 20260502053241 | 37 | 133 | 0.0 | 0.0 | 0.00 | 0.00 | 0.00 | 98 | 1013.4 |
| 20260502052739 | 37 | 133 | 0.0 | 0.0 | 0.00 | 0.00 | 0.00 | 98 | 1013.3 |
| 20260502052237 | 37 | 132 | 0.0 | 0.0 | 0.00 | 0.00 | 0.00 | 98 | 1013.3 |
| 20260502051735 | 37 | 133 | 0.0 | 0.0 | 0.00 | 0.00 | 0.00 | 98 | 1013.6 |
| 20260502051233 | 37 | 129 | 0.0 | 0.0 | 0.00 | 0.00 | 0.00 | 98 | 1013.6 |
| 20260502050729 | 37 | 137 | 0.0 | 0.0 | 0.00 | 0.00 | 0.00 | 97 | 1013.4 |
| 20260502050225 | 38 | 132 | 0.0 | 0.0 | 0.00 | 0.00 | 0.00 | 97 | 1013.4 |
| 20260502045723 | 38 | 133 | 0.0 | 0.0 | 0.00 | 0.00 | 0.00 | 96 | 1013.3 |
| 20260502045219 | 38 | 133 | 0.0 | 0.0 | 0.00 | 0.00 | 0.00 | 96 | 1013.5 |
| 20260502044716 | 38 | 133 | 0.0 | 0.0 | 0.00 | 0.00 | 0.00 | 96 | 1013.4 |
| 20260502044212 | 38 | 133 | 0.0 | 0.0 | 0.00 | 0.00 | 0.00 | 96 | 1013.4 |
| 20260502043710 | 39 | 131 | 0.0 | 0.0 | 0.00 | 0.00 | 0.00 | 95 | 1013.5 |
| 20260502043208 | 39 | 130 | 0.0 | 0.0 | 0.00 | 0.00 | 0.00 | 93 | 1013.5 |
| 20260502042707 | 39 | 130 | 0.0 | 0.0 | 0.00 | 0.00 | 0.00 | 92 | 1013.5 |
| 20260502042204 | 39 | 130 | 0.0 | 0.0 | 0.00 | 0.00 | 0.00 | 93 | 1013.6 |
| 20260502041702 | 39 | 130 | 0.0 | 0.0 | 0.00 | 0.00 | 0.00 | 93 | 1013.6 |
| 20260502041159 | 39 | 130 | 0.0 | 0.0 | 0.00 | 0.00 | 0.00 | 91 | 1013.5 |
| 20260502040655 | 39 | 130 | 0.0 | 0.0 | 0.00 | 0.00 | 0.00 | 91 | 1013.6 |
| 20260502040153 | 40 | 130 | 0.0 | 0.0 | 0.00 | 0.00 | 0.00 | 93 | 1013.5 |
| 20260502035649 | 40 | 130 | 0.0 | 0.0 | 0.00 | 0.00 | 0.00 | 93 | 1013.4 |
| 20260502035146 | 40 | 131 | 0.0 | 0.0 | 0.00 | 0.00 | 0.00 | 93 | 1013.6 |
| 20260502034643 | 41 | 134 | 0.0 | 0.0 | 0.00 | 0.00 | 0.00 | 93 | 1013.4 |
| 20260502034142 | 41 | 132 | 0.0 | 0.0 | 0.00 | 0.00 | 0.00 | 92 | 1013.4 |
| 20260502033639 | 41 | 133 | 0.0 | 0.0 | 0.00 | 0.00 | 0.00 | 92 | 1013.5 |
| 20260502033137 | 41 | 133 | 0.0 | 0.0 | 0.00 | 0.00 | 0.00 | 92 | 1013.2 |
| 20260502032632 | 42 | 125 | 0.0 | 0.0 | 0.00 | 0.00 | 0.00 | 91 | 1013.3 |
| 20260502032129 | 42 | 131 | 0.0 | 0.0 | 0.00 | 0.00 | 0.00 | 91 | 1013.4 |
| 20260502031627 | 42 | 129 | 0.0 | 0.0 | 0.00 | 0.00 | 0.00 | 89 | 1013.1 |
| 20260502031125 | 43 | 129 | 0.0 | 0.0 | 0.00 | 0.00 | 0.00 | 88 | 1013.2 |
| 20260502030624 | 43 | 129 | 0.0 | 0.0 | 0.00 | 0.00 | 0.00 | 87 | 1013.4 |
| 20260502030121 | 44 | 129 | 0.0 | 0.0 | 0.00 | 0.00 | 0.00 | 86 | 1013.4 |
| 20260502025618 | 44 | 133 | 0.0 | 0.0 | 0.00 | 0.00 | 0.00 | 85 | 1013.4 |
| 20260502025116 | 44 | 133 | 0.0 | 0.0 | 0.00 | 0.00 | 0.00 | 84 | 1013.5 |
| 20260502024614 | 45 | 133 | 0.0 | 0.0 | 0.00 | 0.00 | 0.00 | 84 | 1013.4 |
| 20260502024111 | 45 | 133 | 0.0 | 0.0 | 0.00 | 0.00 | 0.00 | 82 | 1013.3 |
| 20260502023609 | 45 | 133 | 0.0 | 0.0 | 0.00 | 0.00 | 0.00 | 82 | 1013.5 |
| 20260502023106 | 45 | 133 | 0.0 | 0.0 | 0.00 | 0.00 | 0.00 | 82 | 1013.4 |
| 20260502022603 | 45 | 133 | 0.0 | 0.0 | 0.00 | 0.00 | 0.00 | 81 | 1013.5 |
| 20260502022100 | 45 | 134 | 0.0 | 0.0 | 0.00 | 0.00 | 0.00 | 83 | 1013.6 |
| 20260502021557 | 46 | 133 | 0.0 | 0.0 | 0.00 | 0.00 | 0.00 | 82 | 1013.4 |
| 20260502021054 | 45 | 132 | 0.0 | 0.0 | 0.00 | 0.00 | 0.00 | 81 | 1013.2 |
| 20260502020552 | 45 | 133 | 0.0 | 0.0 | 0.00 | 0.00 | 0.00 | 80 | 1013.0 |
| 20260502020048 | 45 | 133 | 0.0 | 0.0 | 0.00 | 0.00 | 0.00 | 78 | 1012.9 |
| 20260502015546 | 45 | 133 | 0.0 | 0.0 | 0.00 | 0.00 | 0.00 | 77 | 1012.9 |
| 20260502015042 | 45 | 133 | 0.0 | 0.0 | 0.00 | 0.00 | 0.00 | 77 | 1012.7 |
| 20260502014540 | 46 | 133 | 0.0 | 0.0 | 0.00 | 0.00 | 0.00 | 76 | 1012.7 |
| 20260502014037 | 46 | 133 | 0.0 | 0.0 | 0.00 | 0.00 | 0.00 | 77 | 1012.8 |
| 20260502013532 | 47 | 133 | 0.0 | 0.0 | 0.00 | 0.00 | 0.00 | 78 | 1012.6 |
| 20260502013029 | 48 | 133 | 0.0 | 0.0 | 0.00 | 0.00 | 0.00 | 76 | 1012.4 |
| 20260502012526 | 48 | 102 | 0.0 | 0.0 | 0.00 | 0.00 | 0.00 | 75 | 1012.2 |
| 20260502012024 | 48 | 125 | 1.0 | 1.0 | 0.00 | 0.00 | 0.00 | 75 | 1012.4 |
| 20260502011520 | 48 | 171 | 2.0 | 2.0 | 0.00 | 0.00 | 0.00 | 76 | 1012.4 |
| 20260502011016 | 49 | 141 | 1.0 | 1.0 | 0.00 | 0.00 | 0.00 | 73 | 1012.2 |
| 20260502010514 | 49 | 195 | 3.0 | 3.0 | 0.00 | 0.00 | 0.00 | 72 | 1012.4 |
| 20260502010010 | 49 | 148 | 1.0 | 1.0 | 0.00 | 0.00 | 0.00 | 73 | 1012.2 |
| 20260502005508 | 50 | 154 | 2.0 | 3.0 | 0.00 | 0.00 | 0.00 | 72 | 1012.0 |
| 20260502005006 | 50 | 325 | 4.0 | 6.0 | 0.00 | 0.00 | 0.00 | 70 | 1011.7 |
| 20260502004501 | 51 | 54 | 3.0 | 3.0 | 0.00 | 0.00 | 0.00 | 69 | 1011.7 |
| 20260502003958 | 51 | 220 | 4.0 | 5.0 | 0.00 | 0.00 | 0.00 | 69 | 1011.4 |
| 20260502003455 | 52 | 136 | 4.0 | 5.0 | 0.00 | 0.00 | 0.00 | 70 | 1011.2 |
| 20260502002951 | 52 | 232 | 4.0 | 6.0 | 0.00 | 0.00 | 0.00 | 72 | 1010.9 |
| 20260502002449 | 53 | 257 | 4.0 | 5.0 | 0.00 | 0.00 | 0.00 | 70 | 1010.9 |
| 20260502001946 | 53 | 341 | 5.0 | 5.0 | 0.00 | 0.00 | 0.00 | 70 | 1010.9 |
| 20260502001444 | 53 | 220 | 1.0 | 2.0 | 0.00 | 0.00 | 0.00 | 71 | 1011.0 |
| 20260502000941 | 53 | 183 | 1.0 | 1.0 | 0.00 | 0.00 | 0.00 | 72 | 1010.6 |
| 20260502000440 | 53 | 9 | 1.0 | 2.0 | 0.00 | 0.00 | 0.00 | 70 | 1010.8 |
| 20260501235935 | 54 | 77 | 3.0 | 3.0 | 0.00 | 0.00 | 0.00 | 69 | 1010.7 |
| 20260501235431 | 54 | 275 | 4.0 | 5.0 | 0.00 | 0.00 | 0.00 | 69 | 1010.6 |
| 20260501234927 | 54 | 17 | 4.0 | 6.0 | 0.00 | 0.00 | 0.00 | 67 | 1010.4 |
| 20260501234424 | 54 | 195 | 3.0 | 3.0 | 0.00 | 0.00 | 0.00 | 67 | 1010.3 |
| 20260501233922 | 55 | 123 | 2.0 | 3.0 | 0.00 | 0.00 | 0.00 | 64 | 1009.9 |
| 20260501233419 | 55 | 95 | 1.0 | 2.0 | 0.00 | 0.00 | 0.00 | 64 | 1009.8 |
| 20260501232914 | 55 | 341 | 4.0 | 5.0 | 0.00 | 0.00 | 0.00 | 62 | 1009.8 |
| 20260501232412 | 56 | 62 | 3.0 | 3.0 | 0.00 | 0.00 | 0.00 | 61 | 1009.7 |
| 20260501231909 | 56 | 83 | 2.0 | 2.0 | 0.00 | 0.00 | 0.00 | 60 | 1009.5 |
| 20260501231408 | 56 | 101 | 2.0 | 2.0 | 0.00 | 0.00 | 0.00 | 62 | 1009.7 |
| 20260501230906 | 56 | 201 | 2.0 | 2.0 | 0.00 | 0.00 | 0.00 | 61 | 1009.8 |
| 20260501230404 | 56 | 332 | 6.0 | 9.0 | 0.00 | 0.00 | 0.00 | 61 | 1009.7 |
| 20260501225901 | 56 | 88 | 3.0 | 3.0 | 0.00 | 0.00 | 0.00 | 63 | 1009.5 |
| 20260501225359 | 56 | 80 | 1.0 | 2.0 | 0.00 | 0.00 | 0.00 | 64 | 1009.4 |
| 20260501224854 | 56 | 4 | 4.0 | 5.0 | 0.00 | 0.00 | 0.00 | 63 | 1009.5 |
| 20260501224352 | 56 | 351 | 5.0 | 7.0 | 0.00 | 0.00 | 0.00 | 65 | 1009.8 |
| 20260501223849 | 56 | 121 | 2.0 | 2.0 | 0.00 | 0.00 | 0.00 | 67 | 1009.7 |
| 20260501223345 | 56 | 98 | 2.0 | 3.0 | 0.00 | 0.00 | 0.00 | 67 | 1009.7 |
| 20260501222840 | 56 | 21 | 3.0 | 3.0 | 0.00 | 0.00 | 0.00 | 65 | 1009.4 |
| 20260501222338 | 56 | 107 | 1.0 | 2.0 | 0.00 | 0.00 | 0.00 | 65 | 1009.3 |